Year,Month,Day,Hour,Minute,Value (Times are PST for temperature in C)
2012,07,01,00,00,10.80
2012,07,01,00,01,10.80
2012,07,01,00,02,10.70
2012,07,01,00,03,10.70
2012,07,01,00,04,10.60
2012,07,01,00,05,10.60
2012,07,01,00,06,10.60
2012,07,01,00,07,10.60
2012,07,01,00,08,10.60
2012,07,01,00,09,10.50
2012,07,01,00,10,10.40
2012,07,01,00,11,10.40
2012,07,01,00,12,10.40
2012,07,01,00,13,10.40
2012,07,01,00,14,10.40
2012,07,01,00,15,10.40
2012,07,01,00,16,10.40
2012,07,01,00,17,10.40
2012,07,01,00,18,10.40
2012,07,01,00,19,10.30
2012,07,01,00,20,10.30
2012,07,01,00,21,10.30
2012,07,01,00,22,10.30
2012,07,01,00,23,10.30
2012,07,01,00,24,10.30
2012,07,01,00,25,10.30
2012,07,01,00,26,10.20
2012,07,01,00,27,10.20
2012,07,01,00,28,10.20
2012,07,01,00,29,10.20
2012,07,01,00,30,10.20
2012,07,01,00,31,10.20
2012,07,01,00,32,10.20
2012,07,01,00,33,10.10
2012,07,01,00,34,10.10
2012,07,01,00,35,10.10
2012,07,01,00,36,10.10
2012,07,01,00,37,10.10
2012,07,01,00,38,10.10
2012,07,01,00,39,10.10
2012,07,01,00,40,10.10
2012,07,01,00,41,10.00
2012,07,01,00,42,9.90
2012,07,01,00,43,9.90
2012,07,01,00,44,9.90
2012,07,01,00,45,9.90
2012,07,01,00,46,9.90
2012,07,01,00,47,9.90
2012,07,01,00,48,9.90
2012,07,01,00,49,9.90
2012,07,01,00,50,9.90
2012,07,01,00,51,9.90
2012,07,01,00,52,9.90
2012,07,01,00,53,9.80
2012,07,01,00,54,9.80
2012,07,01,00,55,9.80
2012,07,01,00,56,9.80
2012,07,01,00,57,9.80
2012,07,01,00,58,9.80
2012,07,01,00,59,9.80
2012,07,01,01,00,9.80
2012,07,01,01,01,9.80
2012,07,01,01,02,9.80
2012,07,01,01,03,9.80
2012,07,01,01,04,9.70
2012,07,01,01,05,9.70
2012,07,01,01,06,9.70
2012,07,01,01,07,9.70
2012,07,01,01,08,9.70
2012,07,01,01,09,9.70
2012,07,01,01,10,9.70
2012,07,01,01,11,9.70
2012,07,01,01,12,9.70
2012,07,01,01,13,9.70
2012,07,01,01,14,9.70
2012,07,01,01,15,9.70
2012,07,01,01,16,9.70
2012,07,01,01,17,9.70
2012,07,01,01,18,9.70
2012,07,01,01,19,9.70
2012,07,01,01,20,9.70
2012,07,01,01,21,9.70
2012,07,01,01,22,9.70
2012,07,01,01,23,9.70
2012,07,01,01,24,9.70
2012,07,01,01,25,9.70
2012,07,01,01,26,9.60
2012,07,01,01,27,9.60
2012,07,01,01,28,9.60
2012,07,01,01,29,9.60
2012,07,01,01,30,9.60
2012,07,01,01,31,9.70
2012,07,01,01,32,9.70
2012,07,01,01,33,9.70
2012,07,01,01,34,9.70
2012,07,01,01,35,9.70
2012,07,01,01,36,9.70
2012,07,01,01,37,9.70
2012,07,01,01,38,9.70
2012,07,01,01,39,9.70
2012,07,01,01,40,9.70
2012,07,01,01,41,9.70
2012,07,01,01,42,9.70
2012,07,01,01,43,9.60
2012,07,01,01,44,9.60
2012,07,01,01,45,9.60
2012,07,01,01,46,9.60
2012,07,01,01,47,9.60
2012,07,01,01,48,9.60
2012,07,01,01,49,9.60
2012,07,01,01,50,9.60
2012,07,01,01,51,9.60
2012,07,01,01,52,9.50
2012,07,01,01,53,9.50
2012,07,01,01,54,9.50
2012,07,01,01,55,9.50
2012,07,01,01,56,9.50
2012,07,01,01,57,9.50
2012,07,01,01,58,9.50
2012,07,01,01,59,9.50
2012,07,01,02,00,9.40
2012,07,01,02,01,9.40
2012,07,01,02,02,9.40
2012,07,01,02,03,9.40
2012,07,01,02,04,9.40
2012,07,01,02,05,9.40
2012,07,01,02,06,9.40
2012,07,01,02,07,9.40
2012,07,01,02,08,9.40
2012,07,01,02,09,9.40
2012,07,01,02,10,9.40
2012,07,01,02,11,9.40
2012,07,01,02,12,9.40
2012,07,01,02,13,9.40
2012,07,01,02,14,9.40
2012,07,01,02,15,9.40
2012,07,01,02,16,9.40
2012,07,01,02,17,9.40
2012,07,01,02,18,9.40
2012,07,01,02,19,9.30
2012,07,01,02,20,9.30
2012,07,01,02,21,9.30
2012,07,01,02,22,9.30
2012,07,01,02,23,9.30
2012,07,01,02,24,9.30
2012,07,01,02,25,9.30
2012,07,01,02,26,9.30
2012,07,01,02,27,9.20
2012,07,01,02,28,9.20
2012,07,01,02,29,9.20
2012,07,01,02,30,9.20
2012,07,01,02,31,9.20
2012,07,01,02,32,9.20
2012,07,01,02,33,9.20
2012,07,01,02,34,9.20
2012,07,01,02,35,9.20
2012,07,01,02,36,9.20
2012,07,01,02,37,9.20
2012,07,01,02,38,9.20
2012,07,01,02,39,9.20
2012,07,01,02,40,9.20
2012,07,01,02,41,9.20
2012,07,01,02,42,9.20
2012,07,01,02,43,9.20
2012,07,01,02,44,9.20
2012,07,01,02,45,9.20
2012,07,01,02,46,9.20
2012,07,01,02,47,9.20
2012,07,01,02,48,9.20
2012,07,01,02,49,9.20
2012,07,01,02,50,9.20
2012,07,01,02,51,9.20
2012,07,01,02,52,9.20
2012,07,01,02,53,9.20
2012,07,01,02,54,9.20
2012,07,01,02,55,9.10
2012,07,01,02,56,9.10
2012,07,01,02,57,9.10
2012,07,01,02,58,9.10
2012,07,01,02,59,9.10
2012,07,01,03,00,9.10
2012,07,01,03,01,9.10
2012,07,01,03,02,9.10
2012,07,01,03,03,9.10
2012,07,01,03,04,9.00
2012,07,01,03,05,9.00
2012,07,01,03,06,9.00
2012,07,01,03,07,9.00
2012,07,01,03,08,9.00
2012,07,01,03,09,9.00
2012,07,01,03,10,9.00
2012,07,01,03,11,9.00
2012,07,01,03,12,9.00
2012,07,01,03,13,9.00
2012,07,01,03,14,9.00
2012,07,01,03,15,9.00
2012,07,01,03,16,9.00
2012,07,01,03,17,9.00
2012,07,01,03,18,9.00
2012,07,01,03,19,9.00
2012,07,01,03,20,8.90
2012,07,01,03,21,8.90
2012,07,01,03,22,8.90
2012,07,01,03,23,8.90
2012,07,01,03,24,9.00
2012,07,01,03,25,9.00
2012,07,01,03,26,9.00
2012,07,01,03,27,9.00
2012,07,01,03,28,9.00
2012,07,01,03,29,9.00
2012,07,01,03,30,9.10
2012,07,01,03,31,9.10
2012,07,01,03,32,9.10
2012,07,01,03,33,9.10
2012,07,01,03,34,9.10
2012,07,01,03,35,9.10
2012,07,01,03,36,9.20
2012,07,01,03,37,9.20
2012,07,01,03,38,9.20
2012,07,01,03,39,9.20
2012,07,01,03,40,9.20
2012,07,01,03,41,9.20
2012,07,01,03,42,9.20
2012,07,01,03,43,9.20
2012,07,01,03,44,9.20
2012,07,01,03,45,9.20
2012,07,01,03,46,9.20
2012,07,01,03,47,9.20
2012,07,01,03,48,9.20
2012,07,01,03,49,9.30
2012,07,01,03,50,9.30
2012,07,01,03,51,9.30
2012,07,01,03,52,9.30
2012,07,01,03,53,9.30
2012,07,01,03,54,9.30
2012,07,01,03,55,9.30
2012,07,01,03,56,9.30
2012,07,01,03,57,9.40
2012,07,01,03,58,9.40
2012,07,01,03,59,9.40
2012,07,01,04,00,9.40
2012,07,01,04,01,9.40
2012,07,01,04,02,9.40
2012,07,01,04,03,9.40
2012,07,01,04,04,9.40
2012,07,01,04,05,9.50
2012,07,01,04,06,9.50
2012,07,01,04,07,9.50
2012,07,01,04,08,9.50
2012,07,01,04,09,9.50
2012,07,01,04,10,9.50
2012,07,01,04,11,9.50
2012,07,01,04,12,9.60
2012,07,01,04,13,9.60
2012,07,01,04,14,9.60
2012,07,01,04,15,9.60
2012,07,01,04,16,9.60
2012,07,01,04,17,9.60
2012,07,01,04,18,9.60
2012,07,01,04,19,9.60
2012,07,01,04,20,9.70
2012,07,01,04,21,9.70
2012,07,01,04,22,9.70
2012,07,01,04,23,9.70
2012,07,01,04,24,9.70
2012,07,01,04,25,9.70
2012,07,01,04,26,9.70
2012,07,01,04,27,9.70
2012,07,01,04,28,9.70
2012,07,01,04,29,9.70
2012,07,01,04,30,9.70
2012,07,01,04,31,9.70
2012,07,01,04,32,9.70
2012,07,01,04,33,9.70
2012,07,01,04,34,9.70
2012,07,01,04,35,9.70
2012,07,01,04,36,9.80
2012,07,01,04,37,9.80
2012,07,01,04,38,9.80
2012,07,01,04,39,9.80
2012,07,01,04,40,9.80
2012,07,01,04,41,9.80
2012,07,01,04,42,9.80
2012,07,01,04,43,9.80
2012,07,01,04,44,9.80
2012,07,01,04,45,9.80
2012,07,01,04,46,9.80
2012,07,01,04,47,9.80
2012,07,01,04,48,9.80
2012,07,01,04,49,9.80
2012,07,01,04,50,9.80
2012,07,01,04,51,9.80
2012,07,01,04,52,9.80
2012,07,01,04,53,9.80
2012,07,01,04,54,9.80
2012,07,01,04,55,9.70
2012,07,01,04,56,9.70
2012,07,01,04,57,9.70
2012,07,01,04,58,9.70
2012,07,01,04,59,9.70
2012,07,01,05,00,9.70
2012,07,01,05,01,9.70
2012,07,01,05,02,9.70
2012,07,01,05,03,9.70
2012,07,01,05,04,9.70
2012,07,01,05,05,9.70
2012,07,01,05,06,9.80
2012,07,01,05,07,9.80
2012,07,01,05,08,9.80
2012,07,01,05,09,9.70
2012,07,01,05,10,9.70
2012,07,01,05,11,9.70
2012,07,01,05,12,9.70
2012,07,01,05,13,9.70
2012,07,01,05,14,9.70
2012,07,01,05,15,9.70
2012,07,01,05,16,9.70
2012,07,01,05,17,9.70
2012,07,01,05,18,9.70
2012,07,01,05,19,9.70
2012,07,01,05,20,9.70
2012,07,01,05,21,9.70
2012,07,01,05,22,9.70
2012,07,01,05,23,9.70
2012,07,01,05,24,9.70
2012,07,01,05,25,9.70
2012,07,01,05,26,9.70
2012,07,01,05,27,9.70
2012,07,01,05,28,9.70
2012,07,01,05,29,9.70
2012,07,01,05,30,9.70
2012,07,01,05,31,9.70
2012,07,01,05,32,9.80
2012,07,01,05,33,9.80
2012,07,01,05,34,9.80
2012,07,01,05,35,9.80
2012,07,01,05,36,9.80
2012,07,01,05,37,9.80
2012,07,01,05,38,9.80
2012,07,01,05,39,9.80
2012,07,01,05,40,9.80
2012,07,01,05,41,9.80
2012,07,01,05,42,9.80
2012,07,01,05,43,9.80
2012,07,01,05,44,9.80
2012,07,01,05,45,9.80
2012,07,01,05,46,9.80
2012,07,01,05,47,9.90
2012,07,01,05,48,9.90
2012,07,01,05,49,9.90
2012,07,01,05,50,9.90
2012,07,01,05,51,9.90
2012,07,01,05,52,9.90
2012,07,01,05,53,9.90
2012,07,01,05,54,9.90
2012,07,01,05,55,9.90
2012,07,01,05,56,9.90
2012,07,01,05,57,9.90
2012,07,01,05,58,9.80
2012,07,01,05,59,9.80
2012,07,01,06,00,9.80
2012,07,01,06,01,9.80
2012,07,01,06,02,9.80
2012,07,01,06,03,9.80
2012,07,01,06,04,9.80
2012,07,01,06,05,9.80
2012,07,01,06,06,9.80
2012,07,01,06,07,9.70
2012,07,01,06,08,9.70
2012,07,01,06,09,9.70
2012,07,01,06,10,9.70
2012,07,01,06,11,9.70
2012,07,01,06,12,9.70
2012,07,01,06,13,9.70
2012,07,01,06,14,9.70
2012,07,01,06,15,9.70
2012,07,01,06,16,9.70
2012,07,01,06,17,9.70
2012,07,01,06,18,9.70
2012,07,01,06,19,9.70
2012,07,01,06,20,9.70
2012,07,01,06,21,9.70
2012,07,01,06,22,9.70
2012,07,01,06,23,9.70
2012,07,01,06,24,9.70
2012,07,01,06,25,9.70
2012,07,01,06,26,9.70
2012,07,01,06,27,9.70
2012,07,01,06,28,9.70
2012,07,01,06,29,9.70
2012,07,01,06,30,9.80
2012,07,01,06,31,9.80
2012,07,01,06,32,9.80
2012,07,01,06,33,9.80
2012,07,01,06,34,9.80
2012,07,01,06,35,9.90
2012,07,01,06,36,9.90
2012,07,01,06,37,9.90
2012,07,01,06,38,9.90
2012,07,01,06,39,9.90
2012,07,01,06,40,9.90
2012,07,01,06,41,9.90
2012,07,01,06,42,10.00
2012,07,01,06,43,10.10
2012,07,01,06,44,10.10
2012,07,01,06,45,10.10
2012,07,01,06,46,10.10
2012,07,01,06,47,10.10
2012,07,01,06,48,10.10
2012,07,01,06,49,10.20
2012,07,01,06,50,10.20
2012,07,01,06,51,10.20
2012,07,01,06,52,10.20
2012,07,01,06,53,10.30
2012,07,01,06,54,10.30
2012,07,01,06,55,10.30
2012,07,01,06,56,10.40
2012,07,01,06,57,10.40
2012,07,01,06,58,10.40
2012,07,01,06,59,10.40
2012,07,01,07,00,10.40
2012,07,01,07,01,10.40
2012,07,01,07,02,10.40
2012,07,01,07,03,10.60
2012,07,01,07,04,10.60
2012,07,01,07,05,10.60
2012,07,01,07,06,10.60
2012,07,01,07,07,10.60
2012,07,01,07,08,10.60
2012,07,01,07,09,10.60
2012,07,01,07,10,10.60
2012,07,01,07,11,10.70
2012,07,01,07,12,10.70
2012,07,01,07,13,10.70
2012,07,01,07,14,10.80
2012,07,01,07,15,10.80
2012,07,01,07,16,10.90
2012,07,01,07,17,10.90
2012,07,01,07,18,10.90
2012,07,01,07,19,10.90
2012,07,01,07,20,11.00
2012,07,01,07,21,11.10
2012,07,01,07,22,11.10
2012,07,01,07,23,11.10
2012,07,01,07,24,11.20
2012,07,01,07,25,11.20
2012,07,01,07,26,11.20
2012,07,01,07,27,11.20
2012,07,01,07,28,11.30
2012,07,01,07,29,11.30
2012,07,01,07,30,11.40
2012,07,01,07,31,11.40
2012,07,01,07,32,11.40
2012,07,01,07,33,11.40
2012,07,01,07,34,11.40
2012,07,01,07,35,11.50
2012,07,01,07,36,11.60
2012,07,01,07,37,11.60
2012,07,01,07,38,11.60
2012,07,01,07,39,11.60
2012,07,01,07,40,11.70
2012,07,01,07,41,11.70
2012,07,01,07,42,11.70
2012,07,01,07,43,11.70
2012,07,01,07,44,11.70
2012,07,01,07,45,11.80
2012,07,01,07,46,11.80
2012,07,01,07,47,11.80
2012,07,01,07,48,11.80
2012,07,01,07,49,11.90
2012,07,01,07,50,11.90
2012,07,01,07,51,11.90
2012,07,01,07,52,11.90
2012,07,01,07,53,11.90
2012,07,01,07,54,12.00
2012,07,01,07,55,12.00
2012,07,01,07,56,12.10
2012,07,01,07,57,12.10
2012,07,01,07,58,12.10
2012,07,01,07,59,12.20
2012,07,01,08,00,12.20
2012,07,01,08,01,12.30
2012,07,01,08,02,12.30
2012,07,01,08,03,12.40
2012,07,01,08,04,12.50
2012,07,01,08,05,12.50
2012,07,01,08,06,12.50
2012,07,01,08,07,12.50
2012,07,01,08,08,12.60
2012,07,01,08,09,12.60
2012,07,01,08,10,12.70
2012,07,01,08,11,12.70
2012,07,01,08,12,12.70
2012,07,01,08,13,12.80
2012,07,01,08,14,12.80
2012,07,01,08,15,12.90
2012,07,01,08,16,12.90
2012,07,01,08,17,12.90
2012,07,01,08,18,12.90
2012,07,01,08,19,12.90
2012,07,01,08,20,12.80
2012,07,01,08,21,12.80
2012,07,01,08,22,12.90
2012,07,01,08,23,12.90
2012,07,01,08,24,12.90
2012,07,01,08,25,12.90
2012,07,01,08,26,12.90
2012,07,01,08,27,13.00
2012,07,01,08,28,13.00
2012,07,01,08,29,13.10
2012,07,01,08,30,13.10
2012,07,01,08,31,13.20
2012,07,01,08,32,13.20
2012,07,01,08,33,13.30
2012,07,01,08,34,13.30
2012,07,01,08,35,13.30
2012,07,01,08,36,13.30
2012,07,01,08,37,13.30
2012,07,01,08,38,13.30
2012,07,01,08,39,13.30
2012,07,01,08,40,13.30
2012,07,01,08,41,13.30
2012,07,01,08,42,13.30
2012,07,01,08,43,13.40
2012,07,01,08,44,13.50
2012,07,01,08,45,13.50
2012,07,01,08,46,13.50
2012,07,01,08,47,13.50
2012,07,01,08,48,13.50
2012,07,01,08,49,13.50
2012,07,01,08,50,13.50
2012,07,01,08,51,13.50
2012,07,01,08,52,13.60
2012,07,01,08,53,13.60
2012,07,01,08,54,13.60
2012,07,01,08,55,13.60
2012,07,01,08,56,13.60
2012,07,01,08,57,13.60
2012,07,01,08,58,13.60
2012,07,01,08,59,13.70
2012,07,01,09,00,13.70
2012,07,01,09,01,13.70
2012,07,01,09,02,13.70
2012,07,01,09,03,13.70
2012,07,01,09,04,13.70
2012,07,01,09,05,13.70
2012,07,01,09,06,13.70
2012,07,01,09,07,13.70
2012,07,01,09,08,13.70
2012,07,01,09,09,13.70
2012,07,01,09,10,13.70
2012,07,01,09,11,13.80
2012,07,01,09,12,13.80
2012,07,01,09,13,13.90
2012,07,01,09,14,13.90
2012,07,01,09,15,13.90
2012,07,01,09,16,13.90
2012,07,01,09,17,14.00
2012,07,01,09,18,14.00
2012,07,01,09,19,14.10
2012,07,01,09,20,14.10
2012,07,01,09,21,14.10
2012,07,01,09,22,14.20
2012,07,01,09,23,14.20
2012,07,01,09,24,14.20
2012,07,01,09,25,14.20
2012,07,01,09,26,14.20
2012,07,01,09,27,14.20
2012,07,01,09,28,14.20
2012,07,01,09,29,14.20
2012,07,01,09,30,14.20
2012,07,01,09,31,14.20
2012,07,01,09,32,14.20
2012,07,01,09,33,14.20
2012,07,01,09,34,14.20
2012,07,01,09,35,14.30
2012,07,01,09,36,14.30
2012,07,01,09,37,14.30
2012,07,01,09,38,14.30
2012,07,01,09,39,14.30
2012,07,01,09,40,14.30
2012,07,01,09,41,14.30
2012,07,01,09,42,14.30
2012,07,01,09,43,14.40
2012,07,01,09,44,14.40
2012,07,01,09,45,14.40
2012,07,01,09,46,14.50
2012,07,01,09,47,14.50
2012,07,01,09,48,14.50
2012,07,01,09,49,14.50
2012,07,01,09,50,14.50
2012,07,01,09,51,14.50
2012,07,01,09,52,14.50
2012,07,01,09,53,14.50
2012,07,01,09,54,14.50
2012,07,01,09,55,14.50
2012,07,01,09,56,14.50
2012,07,01,09,57,14.50
2012,07,01,09,58,14.50
2012,07,01,09,59,14.50
2012,07,01,10,00,14.50
2012,07,01,10,01,14.50
2012,07,01,10,02,14.60
2012,07,01,10,03,14.60
2012,07,01,10,04,14.60
2012,07,01,10,05,14.60
2012,07,01,10,06,14.60
2012,07,01,10,07,14.70
2012,07,01,10,08,14.70
2012,07,01,10,09,14.70
2012,07,01,10,10,14.80
2012,07,01,10,11,14.80
2012,07,01,10,12,14.80
2012,07,01,10,13,14.80
2012,07,01,10,14,14.80
2012,07,01,10,15,14.80
2012,07,01,10,16,14.80
2012,07,01,10,17,14.80
2012,07,01,10,18,14.80
2012,07,01,10,19,14.80
2012,07,01,10,20,14.80
2012,07,01,10,21,14.80
2012,07,01,10,22,14.80
2012,07,01,10,23,14.80
2012,07,01,10,24,14.80
2012,07,01,10,25,14.80
2012,07,01,10,26,14.90
2012,07,01,10,27,14.90
2012,07,01,10,28,14.90
2012,07,01,10,29,15.00
2012,07,01,10,30,15.00
2012,07,01,10,31,15.00
2012,07,01,10,32,15.00
2012,07,01,10,33,15.10
2012,07,01,10,34,15.10
2012,07,01,10,35,15.10
2012,07,01,10,36,15.10
2012,07,01,10,37,15.10
2012,07,01,10,38,15.20
2012,07,01,10,39,15.20
2012,07,01,10,40,15.30
2012,07,01,10,41,15.30
2012,07,01,10,42,15.30
2012,07,01,10,43,15.30
2012,07,01,10,44,15.30
2012,07,01,10,45,15.40
2012,07,01,10,46,15.40
2012,07,01,10,47,15.40
2012,07,01,10,48,15.40
2012,07,01,10,49,15.50
2012,07,01,10,50,15.50
2012,07,01,10,51,15.50
2012,07,01,10,52,15.50
2012,07,01,10,53,15.50
2012,07,01,10,54,15.50
2012,07,01,10,55,15.50
2012,07,01,10,56,15.50
2012,07,01,10,57,15.50
2012,07,01,10,58,15.50
2012,07,01,10,59,15.50
2012,07,01,11,00,15.50
2012,07,01,11,01,15.50
2012,07,01,11,02,15.50
2012,07,01,11,03,15.40
2012,07,01,11,04,15.40
2012,07,01,11,05,15.40
2012,07,01,11,06,15.40
2012,07,01,11,07,15.40
2012,07,01,11,08,15.40
2012,07,01,11,09,15.40
2012,07,01,11,10,15.40
2012,07,01,11,11,15.40
2012,07,01,11,12,15.40
2012,07,01,11,13,15.40
2012,07,01,11,14,15.40
2012,07,01,11,15,15.40
2012,07,01,11,16,15.40
2012,07,01,11,17,15.50
2012,07,01,11,18,15.50
2012,07,01,11,19,15.40
2012,07,01,11,20,15.40
2012,07,01,11,21,15.40
2012,07,01,11,22,15.50
2012,07,01,11,23,15.50
2012,07,01,11,24,15.50
2012,07,01,11,25,15.60
2012,07,01,11,26,15.70
2012,07,01,11,27,15.70
2012,07,01,11,28,15.80
2012,07,01,11,29,15.80
2012,07,01,11,30,15.80
2012,07,01,11,31,15.80
2012,07,01,11,32,15.80
2012,07,01,11,33,15.80
2012,07,01,11,34,15.80
2012,07,01,11,35,15.80
2012,07,01,11,36,15.90
2012,07,01,11,37,15.90
2012,07,01,11,38,16.00
2012,07,01,11,39,16.10
2012,07,01,11,40,16.10
2012,07,01,11,41,16.10
2012,07,01,11,42,16.10
2012,07,01,11,43,15.90
2012,07,01,11,44,15.90
2012,07,01,11,45,15.90
2012,07,01,11,46,15.80
2012,07,01,11,47,15.90
2012,07,01,11,48,15.90
2012,07,01,11,49,15.90
2012,07,01,11,50,15.90
2012,07,01,11,51,15.90
2012,07,01,11,52,15.90
2012,07,01,11,53,16.00
2012,07,01,11,54,16.10
2012,07,01,11,55,16.10
2012,07,01,11,56,16.10
2012,07,01,11,57,16.10
2012,07,01,11,58,16.20
2012,07,01,11,59,16.20
2012,07,01,12,00,16.20
2012,07,01,12,01,16.30
2012,07,01,12,02,16.30
2012,07,01,12,03,16.30
2012,07,01,12,04,16.30
2012,07,01,12,05,16.30
2012,07,01,12,06,16.30
2012,07,01,12,07,16.30
2012,07,01,12,08,16.30
2012,07,01,12,09,16.30
2012,07,01,12,10,16.20
2012,07,01,12,11,16.20
2012,07,01,12,12,16.20
2012,07,01,12,13,16.10
2012,07,01,12,14,16.10
2012,07,01,12,15,16.10
2012,07,01,12,16,16.10
2012,07,01,12,17,16.10
2012,07,01,12,18,16.10
2012,07,01,12,19,16.10
2012,07,01,12,20,16.10
2012,07,01,12,21,16.10
2012,07,01,12,22,16.10
2012,07,01,12,23,16.10
2012,07,01,12,24,16.10
2012,07,01,12,25,16.10
2012,07,01,12,26,16.10
2012,07,01,12,27,16.10
2012,07,01,12,28,16.20
2012,07,01,12,29,16.20
2012,07,01,12,30,16.20
2012,07,01,12,31,16.30
2012,07,01,12,32,16.30
2012,07,01,12,33,16.30
2012,07,01,12,34,16.40
2012,07,01,12,35,16.40
2012,07,01,12,36,16.50
2012,07,01,12,37,16.60
2012,07,01,12,38,16.70
2012,07,01,12,39,16.70
2012,07,01,12,40,16.70
2012,07,01,12,41,16.70
2012,07,01,12,42,16.70
2012,07,01,12,43,16.70
2012,07,01,12,44,16.70
2012,07,01,12,45,16.70
2012,07,01,12,46,16.70
2012,07,01,12,47,16.70
2012,07,01,12,48,16.60
2012,07,01,12,49,16.60
2012,07,01,12,50,16.60
2012,07,01,12,51,16.60
2012,07,01,12,52,16.40
2012,07,01,12,53,16.40
2012,07,01,12,54,16.40
2012,07,01,12,55,16.40
2012,07,01,12,56,16.40
2012,07,01,12,57,16.40
2012,07,01,12,58,16.40
2012,07,01,12,59,16.40
2012,07,01,13,00,16.30
2012,07,01,13,01,16.30
2012,07,01,13,02,16.30
2012,07,01,13,03,16.30
2012,07,01,13,04,16.30
2012,07,01,13,05,16.30
2012,07,01,13,06,16.20
2012,07,01,13,07,16.20
2012,07,01,13,08,16.20
2012,07,01,13,09,16.20
2012,07,01,13,10,16.20
2012,07,01,13,11,16.20
2012,07,01,13,12,16.30
2012,07,01,13,13,16.30
2012,07,01,13,14,16.40
2012,07,01,13,15,16.50
2012,07,01,13,16,16.70
2012,07,01,13,17,16.80
2012,07,01,13,18,16.90
2012,07,01,13,19,17.00
2012,07,01,13,20,17.00
2012,07,01,13,21,17.10
2012,07,01,13,22,17.10
2012,07,01,13,23,17.10
2012,07,01,13,24,17.10
2012,07,01,13,25,17.20
2012,07,01,13,26,17.20
2012,07,01,13,27,17.10
2012,07,01,13,28,17.10
2012,07,01,13,29,17.10
2012,07,01,13,30,17.00
2012,07,01,13,31,17.00
2012,07,01,13,32,17.00
2012,07,01,13,33,17.00
2012,07,01,13,34,16.90
2012,07,01,13,35,16.90
2012,07,01,13,36,16.90
2012,07,01,13,37,16.90
2012,07,01,13,38,16.90
2012,07,01,13,39,16.90
2012,07,01,13,40,16.90
2012,07,01,13,41,17.00
2012,07,01,13,42,17.00
2012,07,01,13,43,17.10
2012,07,01,13,44,17.10
2012,07,01,13,45,17.10
2012,07,01,13,46,17.10
2012,07,01,13,47,17.20
2012,07,01,13,48,17.20
2012,07,01,13,49,17.20
2012,07,01,13,50,17.20
2012,07,01,13,51,17.30
2012,07,01,13,52,17.30
2012,07,01,13,53,17.40
2012,07,01,13,54,17.50
2012,07,01,13,55,17.60
2012,07,01,13,56,17.70
2012,07,01,13,57,17.90
2012,07,01,13,58,18.10
2012,07,01,13,59,18.20
2012,07,01,14,00,18.30
2012,07,01,14,01,18.40
2012,07,01,14,02,18.50
2012,07,01,14,03,18.50
2012,07,01,14,04,18.50
2012,07,01,14,05,18.40
2012,07,01,14,06,18.40
2012,07,01,14,07,18.40
2012,07,01,14,08,18.40
2012,07,01,14,09,18.40
2012,07,01,14,10,18.50
2012,07,01,14,11,18.60
2012,07,01,14,12,18.80
2012,07,01,14,13,18.90
2012,07,01,14,14,18.90
2012,07,01,14,15,19.00
2012,07,01,14,16,18.90
2012,07,01,14,17,19.00
2012,07,01,14,18,19.10
2012,07,01,14,19,19.10
2012,07,01,14,20,19.10
2012,07,01,14,21,18.90
2012,07,01,14,22,18.90
2012,07,01,14,23,18.90
2012,07,01,14,24,18.90
2012,07,01,14,25,18.90
2012,07,01,14,26,18.90
2012,07,01,14,27,18.90
2012,07,01,14,28,18.90
2012,07,01,14,29,18.80
2012,07,01,14,30,18.80
2012,07,01,14,31,18.70
2012,07,01,14,32,18.60
2012,07,01,14,33,18.50
2012,07,01,14,34,18.50
2012,07,01,14,35,18.40
2012,07,01,14,36,18.40
2012,07,01,14,37,18.30
2012,07,01,14,38,18.30
2012,07,01,14,39,18.20
2012,07,01,14,40,18.20
2012,07,01,14,41,18.20
2012,07,01,14,42,18.10
2012,07,01,14,43,18.10
2012,07,01,14,44,18.20
2012,07,01,14,45,18.20
2012,07,01,14,46,18.30
2012,07,01,14,47,18.40
2012,07,01,14,48,18.40
2012,07,01,14,49,18.50
2012,07,01,14,50,18.50
2012,07,01,14,51,18.60
2012,07,01,14,52,18.70
2012,07,01,14,53,18.80
2012,07,01,14,54,18.90
2012,07,01,14,55,18.90
2012,07,01,14,56,19.00
2012,07,01,14,57,19.10
2012,07,01,14,58,19.20
2012,07,01,14,59,19.30
2012,07,01,15,00,19.30
2012,07,01,15,01,19.30
2012,07,01,15,02,19.20
2012,07,01,15,03,19.20
2012,07,01,15,04,19.30
2012,07,01,15,05,19.40
2012,07,01,15,06,19.40
2012,07,01,15,07,19.30
2012,07,01,15,08,19.30
2012,07,01,15,09,19.30
2012,07,01,15,10,19.30
2012,07,01,15,11,19.30
2012,07,01,15,12,19.30
2012,07,01,15,13,19.40
2012,07,01,15,14,19.50
2012,07,01,15,15,19.60
2012,07,01,15,16,19.60
2012,07,01,15,17,19.60
2012,07,01,15,18,19.60
2012,07,01,15,19,19.70
2012,07,01,15,20,19.60
2012,07,01,15,21,19.50
2012,07,01,15,22,19.40
2012,07,01,15,23,19.30
2012,07,01,15,24,19.30
2012,07,01,15,25,19.30
2012,07,01,15,26,19.30
2012,07,01,15,27,19.30
2012,07,01,15,28,19.30
2012,07,01,15,29,19.40
2012,07,01,15,30,19.40
2012,07,01,15,31,19.50
2012,07,01,15,32,19.50
2012,07,01,15,33,19.60
2012,07,01,15,34,19.60
2012,07,01,15,35,19.60
2012,07,01,15,36,19.60
2012,07,01,15,37,19.50
2012,07,01,15,38,19.50
2012,07,01,15,39,19.50
2012,07,01,15,40,19.50
2012,07,01,15,41,19.50
2012,07,01,15,42,19.50
2012,07,01,15,43,19.50
2012,07,01,15,44,19.60
2012,07,01,15,45,19.50
2012,07,01,15,46,19.40
2012,07,01,15,47,19.30
2012,07,01,15,48,19.30
2012,07,01,15,49,19.20
2012,07,01,15,50,19.30
2012,07,01,15,51,19.30
2012,07,01,15,52,19.40
2012,07,01,15,53,19.30
2012,07,01,15,54,19.30
2012,07,01,15,55,19.30
2012,07,01,15,56,19.30
2012,07,01,15,57,19.30
2012,07,01,15,58,19.20
2012,07,01,15,59,19.20
2012,07,01,16,00,19.20
2012,07,01,16,01,19.20
2012,07,01,16,02,19.20
2012,07,01,16,03,19.20
2012,07,01,16,04,19.20
2012,07,01,16,05,19.20
2012,07,01,16,06,19.10
2012,07,01,16,07,19.10
2012,07,01,16,08,19.10
2012,07,01,16,09,19.10
2012,07,01,16,10,19.10
2012,07,01,16,11,19.10
2012,07,01,16,12,19.10
2012,07,01,16,13,19.10
2012,07,01,16,14,19.10
2012,07,01,16,15,19.00
2012,07,01,16,16,18.90
2012,07,01,16,17,18.90
2012,07,01,16,18,18.90
2012,07,01,16,19,18.80
2012,07,01,16,20,18.80
2012,07,01,16,21,18.80
2012,07,01,16,22,18.70
2012,07,01,16,23,18.70
2012,07,01,16,24,18.60
2012,07,01,16,25,18.60
2012,07,01,16,26,18.60
2012,07,01,16,27,18.60
2012,07,01,16,28,18.50
2012,07,01,16,29,18.50
2012,07,01,16,30,18.50
2012,07,01,16,31,18.40
2012,07,01,16,32,18.40
2012,07,01,16,33,18.40
2012,07,01,16,34,18.30
2012,07,01,16,35,18.30
2012,07,01,16,36,18.20
2012,07,01,16,37,18.20
2012,07,01,16,38,18.10
2012,07,01,16,39,18.10
2012,07,01,16,40,18.10
2012,07,01,16,41,18.00
2012,07,01,16,42,17.90
2012,07,01,16,43,17.90
2012,07,01,16,44,17.90
2012,07,01,16,45,17.90
2012,07,01,16,46,17.90
2012,07,01,16,47,17.90
2012,07,01,16,48,17.90
2012,07,01,16,49,17.80
2012,07,01,16,50,17.80
2012,07,01,16,51,17.80
2012,07,01,16,52,17.80
2012,07,01,16,53,17.80
2012,07,01,16,54,17.80
2012,07,01,16,55,17.80
2012,07,01,16,56,17.80
2012,07,01,16,57,17.70
2012,07,01,16,58,17.70
2012,07,01,16,59,17.70
2012,07,01,17,00,17.60
2012,07,01,17,01,17.60
2012,07,01,17,02,17.60
2012,07,01,17,03,17.50
2012,07,01,17,04,17.50
2012,07,01,17,05,17.50
2012,07,01,17,06,17.50
2012,07,01,17,07,17.50
2012,07,01,17,08,17.40
2012,07,01,17,09,17.40
2012,07,01,17,10,17.40
2012,07,01,17,11,17.40
2012,07,01,17,12,17.40
2012,07,01,17,13,17.40
2012,07,01,17,14,17.40
2012,07,01,17,15,17.40
2012,07,01,17,16,17.40
2012,07,01,17,17,17.40
2012,07,01,17,18,17.30
2012,07,01,17,19,17.30
2012,07,01,17,20,17.30
2012,07,01,17,21,17.30
2012,07,01,17,22,17.30
2012,07,01,17,23,17.30
2012,07,01,17,24,17.20
2012,07,01,17,25,17.20
2012,07,01,17,26,17.20
2012,07,01,17,27,17.20
2012,07,01,17,28,17.20
2012,07,01,17,29,17.20
2012,07,01,17,30,17.10
2012,07,01,17,31,17.10
2012,07,01,17,32,17.10
2012,07,01,17,33,17.00
2012,07,01,17,34,17.00
2012,07,01,17,35,17.00